Location: Little Baddow
(51.7333°N, 0.5667°E)
Time: 00:43:57
(UTC+00:00)

Cosmos 2369 Rocket - Pass Details

Date: 08 November 2025
Orbit: 826 x 853 km, 71.0° (Epoch: 13 December)

Event Time Altitude Azimuth Distance (km) Brightness Sun altitude
Exits shadow 05:27:11 - 333° (NNW) 3,010 4.7 -15.2°
Reaches altitude 10° 05:28:43 10° 339° (NNW) 2,471 4.3 -14.9°
Maximum altitude 05:34:01 39° 47° (NE) 1,248 3.4 -14.1°
Drops below altitude 10° 05:39:20 10° 116° (ESE) 2,475 5.9 -13.3°
Sets 05:41:57 0° 124° (SE) 3,410 6.7 -12.9°
